Temperature
2 2 2 2 2 2 2 3 4 4 4 4 4 3 2 1 1 0 0 0 0 0 0 1 1 2 2 2 2 3 3 3 3 4 4 4 4 4 4 4 4 4 4 4
1 2 1 1 2 2 2 2 2 2 3 3 2 1 1 1 0 -0 -0 -0 -0 -0 0 0 1 1 1 1 2 2 2 2 3 3 3 3 3 3 4 4 4 4 4 4
3 1 1 3 2 1 1 1 2 2 3 2 1 1 0 -0 -1 -1 -1 -1 -1 -1 -1 -1 -0 0 0 1 1 1 2 2 2 2 2 3 3 3 3 3 3 3 3 3
1 1 3 4 1 1 1 1 1 1 1 1 0 -1 -1 -1 -1 -1 -1 -1 -1 -1 -1 -1 -1 -0 -0 -0 0 1 1 1 1 2 2 2 2 2 2 2 3 3 3 3
1 2 3 3 1 0 0 1 1 0 0 -0 -1 -1 -0 -1 -1 -1 -2 -2 -2 -2 -1 -1 -1 -1 -1 -1 -0 -0 -0 0 1 1 1 1 1 2 2 2 2 2 2 2
0 2 3 3 1 -1 0 2 1 -1 -1 -1 -1 1 1 -1 -2 -2 -2 -2 -2 -2 -2 -2 -1 -1 -1 -1 -1 -1 -0 -0 -0 -0 0 1 1 1 1 1 1 1 2 2
0 1 3 1 -1 -0 2 2 -0 -1 -2 -2 -2 -1 -2 -2 -2 -2 -2 -2 -2 -2 -2 -2 -2 -2 -2 -1 -1 -1 -1 -1 -1 -1 -0 -0 0 0 0 1 1 1 1 1
-0 1 2 -0 -1 0 1 -1 -2 -2 -2 -3 -3 -3 -3 -3 -2 -2 -2 -2 -2 -2 -2 -2 -2 -2 -2 -2 -2 -2 -1 -1 -1 -1 -1 -1 -0 -0 -0 -0 -0 -0 -0 -0
0 1 -0 -2 -2 -2 -2 -2 -2 -2 -3 -3 -3 -3 -3 -3 -3 -3 -2 -2 -2 -3 -3 -2 -2 -2 -3 -2 -2 -2 -2 -2 -1 -1 -1 -1 -1 -1 -0 -1 -1 -1 -1 -1
-2 -1 -1 -2 -2 -2 -3 -3 -3 -3 -3 -3 -3 -3 -3 -3 -3 -3 -3 -3 -3 -3 -3 -3 -3 -3 -3 -3 -3 -2 -2 -2 -2 -2 -2 -1 -1 -1 -1 -1 -1 -1 -2 -2
-2 -2 -2 -2 -2 -2 -3 -3 -3 -3 -3 -3 -3 -3 -3 -3 -3 -3 -3 -3 -3 -3 -3 -3 -3 -3 -3 -3 -3 -3 -3 -2 -2 -2 -2 -2 -2 -2 -1 -1 -1 -2 -2 -2
-1 -1 -2 -2 -3 -3 -3 -3 -3 -3 -3 -3 -3 -4 -4 -4 -3 -3 -3 -3 -3 -3 -3 -4 -3 -3 -3 -3 -3 -3 -3 -3 -3 -2 -2 -2 -2 -2 -2 -2 -2 -2 -2 -2
-3 -3 -4 -3 -3 -3 -4 -3 -4 -4 -4 -4 -3 -4 -4 -4 -4 -4 -4 -4 -4 -4 -4 -4 -4 -4 -3 -3 -3 -3 -3 -3 -3 -3 -3 -3 -3 -3 -3 -2 -2 -2 -2 -2
-4 -4 -4 -4 -4 -4 -4 -4 -4 -4 -4 -4 -4 -4 -4 -4 -4 -4 -4 -4 -4 -4 -4 -4 -4 -4 -4 -4 -3 -3 -3 -3 -3 -3 -3 -3 -3 -3 -3 -3 -3 -3 -3 -3
-4 -5 -5 -5 -5 -5 -5 -4 -4 -4 -4 -4 -4 -4 -4 -4 -4 -4 -4 -4 -4 -4 -4 -4 -4 -4 -4 -4 -4 -4 -4 -4 -4 -4 -4 -4 -4 -4 -3 -4 -4 -3 -3 -3
-5 -5 -5 -5 -5 -5 -5 -5 -5 -4 -4 -4 -4 -4 -4 -4 -4 -4 -4 -5 -5 -5 -5 -5 -5 -5 -5 -4 -4 -4 -4 -4 -4 -4 -4 -4 -4 -4 -4 -4 -4 -4 -4 -4
-6 -6 -6 -6 -5 -5 -5 -5 -5 -5 -5 -5 -5 -5 -5 -5 -5 -5 -5 -5 -5 -5 -5 -5 -5 -5 -5 -5 -5 -4 -4 -4 -4 -4 -4 -4 -4 -4 -4 -4 -4 -4 -4 -4
-5 -6 -6 -6 -6 -5 -5 -5 -5 -5 -5 -5 -5 -5 -5 -5 -5 -5 -5 -5 -5 -5 -5 -5 -5 -5 -5 -5 -5 -5 -5 -5 -4 -4 -4 -4 -4 -5 -5 -5 -5 -5 -5 -5
-5 -5 -6 -5 -5 -5 -5 -5 -5 -5 -5 -6 -5 -5 -5 -5 -6 -6 -6 -6 -5 -5 -5 -5 -5 -5 -5 -5 -5 -5 -5 -5 -5 -5 -5 -5 -5 -5 -5 -5 -5 -5 -5 -5
-5 -5 -5 -5 -5 -6 -6 -6 -6 -6 -6 -6 -6 -6 -6 -6 -6 -6 -6 -6 -6 -6 -6 -6 -6 -6 -6 -6 -6 -6 -5 -5 -5 -5 -5 -5 -5 -5 -5 -5 -5 -5 -5 -5
-5 -5 -6 -6 -6 -6 -6 -6 -6 -6 -6 -6 -6 -6 -6 -6 -6 -6 -6 -6 -6 -6 -6 -6 -6 -6 -6 -6 -6 -6 -6 -6 -6 -6 -6 -6 -6 -6 -6 -6 -6 -6 -6 -6
-5 -6 -6 -6 -6 -6 -6 -6 -6 -6 -6 -6 -6 -6 -6 -6 -6 -6 -6 -6 -6 -6 -6 -6 -6 -6 -6 -6 -6 -6 -6 -6 -6 -6 -6 -6 -6 -6 -6 -6 -6 -6 -6 -6
-6 -6 -6 -6 -6 -6 -6 -6 -6 -6 -6 -6 -6 -7 -7 -7 -7 -7 -6 -6 -6 -6 -7 -6 -6 -6 -6 -6 -7 -7 -7 -7 -7 -7 -7 -7 -7 -7 -7 -7 -7 -7 -7 -6
-6 -6 -6 -6 -6 -6 -6 -6 -7 -7 -7 -7 -7 -7 -7 -7 -7 -7 -7 -7 -7 -7 -7 -7 -7 -7 -7 -7 -7 -7 -7 -7 -7 -7 -7 -7 -7 -7 -7 -7 -7 -7 -7 -7
-6 -6 -6 -7 -7 -7 -7 -7 -7 -7 -7 -7 -7 -7 -7 -7 -7 -7 -7 -7 -7 -7 -7 -7 -7 -7 -7 -7 -7 -7 -7 -7 -7 -7 -7 -7 -7 -7 -7 -7 -7 -7 -7 -7
-6 -7 -7 -7 -7 -7 -7 -7 -7 -7 -7 -7 -7 -7 -8 -8 -8 -8 -8 -7 -7 -7 -7 -7 -7 -7 -7 -7 -7 -7 -7 -7 -7 -7 -7 -7 -7 -7 -7 -7 -7 -7 -7 -7
-7 -7 -7 -7 -7 -7 -8 -8 -8 -8 -8 -8 -8 -8 -8 -8 -8 -8 -8 -8 -8 -8 -8 -8 -8 -8 -8 -8 -8 -8 -8 -7 -7 -7 -7 -7 -7 -7 -7 -7 -7 -7 -7 -7
Wind_Speed
8 8 7 8 10 9 11 11 9 9 10 11 9 8 8 7 7 7 7 8 7 7 7 7 7 6 6 5 5 3 2 2 3 3 3 5 5 5 6 6 6 6 6 7
5 5 5 8 10 10 11 11 12 13 13 9 8 7 7 7 7 7 7 8 7 7 8 8 8 7 6 6 5 4 3 3 3 2 3 4 5 5 5 6 6 6 6 6
4 4 5 7 6 7 5 7 7 9 8 6 6 7 7 7 7 7 7 7 8 7 7 7 8 7 7 6 5 4 4 3 3 3 3 3 3 4 5 5 5 5 5 5
3 3 5 1 1 3 5 6 6 7 6 6 7 8 7 7 7 7 7 8 8 8 8 8 7 7 6 5 4 4 4 4 4 3 3 2 3 3 4 4 4 5 4 5
3 4 7 3 1 1 3 5 4 6 7 7 6 6 5 4 5 7 8 8 8 7 7 7 7 6 5 4 4 4 4 4 4 3 3 3 3 3 3 3 3 3 4 4
3 4 5 1 1 2 3 4 1 3 6 6 5 4 4 6 8 8 8 7 7 7 7 6 6 5 4 4 4 4 4 4 4 4 4 4 3 3 2 2 3 2 3 3
6 5 5 2 2 1 2 3 4 4 5 4 4 5 6 8 8 8 8 7 7 6 6 6 6 4 4 4 4 5 4 4 4 4 4 4 3 2 2 2 1 2 2 2
4 5 5 1 0 2 3 4 4 5 5 5 6 7 7 7 7 7 7 7 7 6 6 6 5 4 4 5 5 4 4 4 4 4 3 2 2 2 1 1 2 2 2 2
5 4 2 1 3 4 4 5 5 5 5 5 6 7 7 7 7 7 7 7 6 6 6 6 6 4 5 5 5 3 3 4 4 3 3 2 1 1 1 1 2 2 2 2
4 6 5 5 5 5 6 6 7 7 6 6 6 7 7 6 6 6 7 7 6 6 5 6 6 5 5 5 4 3 3 3 3 2 2 1 1 1 2 2 2 2 2 2
5 6 6 4 4 5 6 6 7 7 6 6 6 6 6 6 7 6 6 6 6 5 6 6 6 6 6 5 4 4 3 3 2 2 2 1 1 1 2 2 3 3 3 3
5 3 4 6 5 5 5 6 6 6 6 5 5 6 6 6 6 6 6 6 6 6 6 6 6 6 6 5 3 3 3 2 2 2 1 1 1 1 1 2 3 3 3 3
5 5 6 8 7 5 5 7 6 6 6 6 6 5 6 6 6 6 6 6 6 6 6 6 6 6 6 5 4 3 3 3 2 2 1 1 1 1 1 1 1 1 2 2
6 5 6 5 6 6 6 6 6 5 5 5 5 5 5 5 5 5 6 6 5 5 5 5 5 6 6 5 4 3 3 3 3 2 2 2 2 2 2 1 1 1 1 2
5 6 7 7 7 6 5 5 5 5 5 5 4 4 4 5 5 5 5 5 5 4 5 5 5 6 6 5 4 3 3 2 2 2 2 2 2 2 1 1 1 1 1 0
6 5 5 6 7 7 5 5 5 6 5 5 5 5 5 5 5 5 5 4 4 5 5 5 5 6 5 4 4 3 2 2 2 2 1 1 1 1 1 1 1 1 1 0
3 4 5 6 7 7 6 6 6 6 6 6 6 6 5 5 5 5 5 4 4 5 5 5 5 5 5 4 3 3 2 2 2 1 1 1 1 1 1 1 1 1 1 1
5 5 5 6 6 7 7 6 6 6 6 6 6 5 5 4 5 5 5 5 5 5 5 5 4 4 4 4 3 3 2 2 2 1 1 1 1 1 2 2 2 1 1 1
4 4 5 5 5 5 6 6 6 5 5 4 4 5 5 5 5 5 5 4 5 5 5 4 5 4 4 3 3 2 2 2 2 2 2 2 1 1 1 1 1 1 1 1
4 4 4 5 4 4 5 5 5 4 4 4 4 4 4 5 4 4 4 4 4 4 5 5 4 4 4 3 3 2 2 2 2 2 1 1 1 1 1 1 1 1 1 1
4 4 5 5 5 5 5 4 4 4 4 3 3 4 5 5 5 4 4 4 4 4 5 5 4 3 3 3 3 2 2 2 2 1 1 1 1 1 1 1 1 1 1 1
4 4 5 5 5 5 4 4 4 4 4 4 3 4 4 4 4 4 4 4 5 5 4 3 3 3 3 3 2 2 2 2 1 1 1 1 1 1 1 1 1 1 1 1
4 4 5 5 5 5 5 4 3 3 4 4 4 4 4 4 3 3 4 3 4 5 4 3 4 5 5 3 2 1 1 1 1 1 1 1 1 1 1 1 1 1 1 1
4 4 5 4 3 3 4 4 4 3 4 4 4 4 4 4 3 3 4 5 6 6 4 4 5 5 4 2 2 1 1 1 1 1 1 1 1 1 1 1 1 1 1 1
4 4 3 3 3 3 4 4 4 3 3 3 4 4 3 3 3 4 4 4 5 5 3 4 5 4 3 2 2 2 2 1 1 1 1 1 1 1 1 1 1 1 1 1
3 4 4 4 4 4 3 3 3 3 3 3 3 3 3 3 3 3 3 3 3 4 3 3 3 3 2 2 2 2 2 2 2 2 1 1 1 1 1 1 1 1 1 1
3 3 3 3 3 3 3 3 3 3 3 3 4 3 3 3 3 3 3 3 3 2 2 2 2 2 2 2 2 2 2 2 2 2 1 1 1 1 1 1 0 0 0 0
Wind_Direction
268 277 273 265 260 241 228 237 250 266 275 287 302 305 311 316 319 328 334 338 340 344 343 346 346 345 344 336 335 328 316 302 271 251 236 221 214 210 208 208 206 201 201 204
273 271 272 273 266 248 241 243 251 269 279 295 308 309 310 314 314 319 323 328 334 339 340 340 339 337 336 334 333 331 328 318 311 293 258 231 218 214 208 207 204 202 203 204
267 311 295 267 247 223 231 238 241 254 276 313 312 312 311 311 310 307 313 321 327 330 330 329 329 331 329 326 329 339 337 325 311 297 279 259 239 224 213 209 203 203 203 205
279 301 248 293 69 219 238 257 243 260 292 309 308 309 303 298 301 305 311 315 320 322 323 322 323 324 324 324 332 339 333 326 316 308 287 269 252 240 229 216 207 204 203 206
238 261 273 275 262 262 250 275 258 262 286 306 319 312 303 313 315 312 312 311 312 315 314 316 319 320 323 327 333 332 326 319 314 306 294 273 258 250 244 228 220 207 206 207
230 253 259 314 10 310 261 273 338 291 294 306 315 309 314 329 322 317 317 315 315 316 317 317 317 317 319 321 319 315 310 309 309 302 290 272 261 262 256 236 229 207 211 215
232 246 268 322 325 265 251 313 338 310 299 290 282 288 300 306 309 313 315 317 317 318 318 315 314 316 317 314 303 302 303 304 301 296 283 269 262 260 248 235 219 215 216 221
209 231 261 22 102 233 301 325 316 310 304 295 293 298 299 302 307 313 317 322 325 324 324 325 325 322 315 308 304 300 298 296 293 294 287 272 254 251 240 210 200 212 211 215
216 240 327 261 266 292 310 303 307 306 305 296 298 303 305 308 310 314 318 323 327 323 324 327 328 321 310 308 309 298 292 290 287 290 285 270 247 237 226 208 206 213 210 218
258 265 281 282 277 287 293 290 295 296 295 290 292 298 303 304 308 313 317 321 323 325 325 323 324 320 311 307 303 292 285 290 290 290 284 274 248 227 219 215 213 215 216 220
255 281 299 276 281 302 304 299 298 300 296 288 287 293 298 301 305 309 313 316 319 321 321 322 323 321 317 306 296 292 295 297 294 287 274 270 265 248 230 229 226 226 223 221
254 274 275 294 315 313 307 305 304 304 309 307 297 295 300 302 304 306 310 315 318 319 320 322 325 325 328 320 302 295 299 302 297 289 280 278 282 285 268 245 253 246 236 234
268 292 284 289 299 303 303 303 304 299 297 302 305 301 300 302 305 307 309 312 313 314 317 321 325 328 330 329 309 294 291 293 292 286 272 264 263 262 278 287 242 240 228 232
270 286 287 288 300 308 302 303 304 302 301 299 302 306 307 306 306 307 308 310 311 312 316 321 325 327 327 325 317 296 289 289 284 275 268 264 257 253 253 263 276 278 210 198
274 271 273 288 297 302 305 305 305 309 315 317 315 310 307 304 303 306 311 314 313 314 318 323 324 325 328 327 324 316 298 286 279 272 263 260 259 251 241 240 248 265 305 172
298 291 281 282 289 298 303 302 300 303 309 311 314 315 310 303 302 305 310 313 315 315 316 317 317 322 327 330 331 327 319 312 295 279 263 249 243 237 230 224 226 231 220 224
298 301 295 294 295 296 293 289 290 295 301 302 306 312 313 311 312 315 319 322 316 311 311 309 310 319 326 327 325 323 322 325 314 293 276 257 239 239 238 231 231 235 247 233
268 278 279 280 286 291 294 294 292 293 295 298 306 309 306 302 304 309 315 320 320 318 314 312 313 321 322 322 320 321 321 321 317 295 278 263 255 245 229 222 226 236 252 239
287 288 290 288 287 286 289 290 291 292 297 300 301 300 299 297 301 309 315 316 312 312 318 324 324 324 319 321 321 316 320 323 321 317 306 283 269 243 230 224 228 232 224 221
299 302 303 305 304 295 292 295 297 298 300 301 300 301 305 307 309 311 311 303 297 301 313 318 317 314 313 317 320 315 314 313 311 308 307 309 311 299 271 243 236 239 225 211
299 303 305 306 307 305 299 298 297 297 302 299 293 294 298 304 308 307 303 304 312 312 313 315 316 313 316 320 315 306 302 301 303 305 304 306 306 305 305 298 269 244 233 219
294 296 297 299 302 305 307 301 294 295 301 302 299 298 300 304 308 305 290 285 305 318 320 313 314 316 321 316 307 304 301 299 299 303 298 291 283 284 292 292 276 263 252 231
291 290 291 291 292 298 307 305 297 292 292 295 296 297 296 297 299 299 305 309 312 319 319 311 319 320 317 314 312 311 311 306 299 291 287 284 277 269 265 271 275 272 262 235
289 291 293 296 292 293 299 304 301 294 290 292 291 290 293 299 302 292 292 308 317 316 317 320 323 323 327 327 324 320 315 309 303 300 300 300 297 290 281 275 272 268 251 218
284 286 288 293 289 286 288 298 302 299 297 297 300 301 294 285 286 299 306 312 321 327 326 329 334 339 338 330 328 322 316 313 309 307 305 306 310 308 295 285 264 254 241 212
277 280 280 275 275 282 287 288 291 299 303 305 311 314 314 310 303 304 308 320 327 331 331 328 333 339 339 337 336 332 327 324 321 323 323 323 323 315 301 292 276 252 238 212
276 282 285 288 286 279 279 279 282 290 294 296 302 310 314 316 318 323 327 330 333 334 332 332 337 340 340 340 336 334 332 330 326 322 318 313 307 300 296 286 266 234 203 162
Height
1470 1469 1469 1467 1466 1466 1467 1460 1456 1447 1447 1444 1445 1446 1445 1444 1442 1440 1437 1435 1433 1431 1428 1426 1424 1422 1421 1420 1419 1418 1418 1417 1417 1418 1419 1420 1422 1423 1425 1427 1429 1430 1432 1434
1471 1468 1467 1466 1462 1462 1461 1459 1456 1452 1449 1446 1447 1446 1445 1443 1441 1439 1437 1435 1433 1430 1428 1426 1424 1422 1420 1418 1417 1416 1415 1415 1415 1415 1416 1417 1419 1420 1421 1423 1424 1426 1428 1429
1463 1467 1465 1455 1455 1457 1457 1455 1453 1449 1447 1447 1447 1445 1444 1442 1440 1438 1436 1434 1432 1430 1427 1425 1423 1421 1418 1416 1415 1414 1413 1413 1413 1413 1413 1414 1416 1417 1418 1419 1421 1422 1424 1425
1468 1467 1457 1450 1455 1454 1454 1452 1451 1449 1448 1448 1447 1445 1443 1441 1439 1437 1435 1433 1430 1428 1426 1423 1421 1419 1417 1415 1414 1413 1412 1411 1411 1411 1411 1411 1412 1413 1415 1416 1417 1419 1420 1422
1469 1459 1449 1449 1454 1455 1453 1450 1449 1448 1447 1447 1446 1442 1440 1439 1438 1436 1433 1431 1428 1426 1423 1421 1419 1417 1415 1413 1412 1411 1410 1410 1409 1409 1408 1409 1410 1410 1412 1413 1414 1415 1417 1418
1468 1459 1448 1447 1453 1453 1454 1445 1447 1447 1446 1446 1444 1440 1438 1438 1436 1433 1431 1429 1426 1424 1421 1419 1417 1415 1413 1411 1411 1410 1409 1408 1408 1407 1407 1407 1407 1408 1409 1410 1411 1412 1413 1415
1466 1460 1448 1452 1453 1453 1449 1445 1447 1446 1445 1444 1443 1442 1440 1436 1434 1431 1429 1427 1424 1422 1419 1417 1414 1413 1411 1409 1409 1408 1407 1407 1406 1406 1405 1405 1406 1406 1407 1407 1408 1408 1410 1411
1465 1459 1452 1453 1453 1452 1449 1448 1446 1445 1444 1443 1441 1439 1436 1434 1431 1429 1426 1424 1422 1419 1416 1414 1412 1411 1409 1407 1407 1406 1405 1405 1404 1404 1403 1403 1403 1404 1404 1405 1406 1407 1408 1409
1459 1455 1453 1453 1452 1451 1449 1447 1445 1444 1442 1441 1438 1436 1434 1431 1429 1427 1424 1422 1420 1417 1415 1412 1411 1409 1407 1405 1405 1404 1403 1403 1402 1402 1401 1401 1401 1402 1402 1403 1404 1404 1405 1406
1459 1452 1452 1451 1450 1449 1447 1446 1444 1442 1440 1438 1436 1434 1432 1429 1427 1425 1423 1420 1418 1416 1413 1411 1409 1407 1405 1404 1403 1402 1401 1401 1400 1399 1399 1399 1399 1400 1400 1400 1401 1402 1402 1403
1457 1452 1450 1448 1447 1446 1445 1443 1441 1439 1437 1436 1434 1432 1430 1427 1425 1423 1421 1419 1417 1414 1412 1410 1407 1405 1403 1401 1400 1400 1399 1398 1398 1398 1398 1397 1397 1398 1398 1399 1399 1399 1400 1400
1449 1449 1450 1447 1446 1444 1442 1440 1438 1436 1434 1433 1432 1429 1427 1425 1423 1421 1419 1417 1415 1412 1410 1408 1406 1403 1401 1400 1399 1398 1397 1396 1396 1396 1396 1396 1396 1396 1396 1397 1397 1397 1397 1398
1450 1448 1447 1445 1443 1442 1440 1438 1436 1434 1433 1431 1429 1427 1425 1423 1421 1419 1417 1415 1413 1410 1408 1406 1404 1402 1400 1399 1397 1396 1395 1395 1394 1394 1394 1394 1394 1394 1394 1395 1395 1395 1395 1395
1447 1446 1444 1442 1441 1439 1437 1435 1434 1432 1430 1429 1427 1425 1423 1421 1419 1417 1415 1413 1411 1409 1407 1405 1403 1401 1399 1398 1396 1395 1394 1393 1393 1392 1392 1392 1392 1392 1392 1392 1392 1392 1393 1393
1444 1443 1442 1440 1438 1436 1435 1433 1431 1429 1428 1426 1424 1423 1421 1418 1416 1415 1413 1411 1409 1407 1405 1403 1401 1400 1398 1396 1395 1394 1393 1392 1391 1391 1390 1390 1390 1390 1390 1390 1390 1390 1391 1391
1440 1439 1438 1437 1435 1433 1432 1430 1428 1426 1425 1424 1422 1420 1419 1417 1415 1413 1411 1409 1408 1406 1404 1402 1400 1398 1397 1395 1394 1392 1391 1391 1390 1389 1389 1388 1388 1388 1388 1389 1388 1389 1389 1389
1438 1436 1434 1433 1432 1431 1429 1428 1426 1425 1423 1421 1420 1418 1416 1414 1412 1411 1409 1408 1406 1404 1403 1401 1399 1397 1396 1394 1393 1391 1390 1389 1389 1388 1388 1387 1387 1387 1387 1387 1387 1387 1388 1388
1436 1434 1433 1432 1430 1428 1427 1426 1424 1423 1421 1419 1418 1416 1414 1412 1410 1409 1407 1406 1404 1402 1401 1399 1398 1396 1394 1393 1392 1390 1389 1388 1387 1387 1386 1386 1386 1386 1386 1386 1386 1386 1386 1387
1433 1432 1430 1429 1428 1427 1425 1423 1422 1420 1419 1417 1416 1414 1412 1411 1409 1407 1406 1404 1402 1400 1399 1398 1396 1395 1393 1392 1390 1389 1388 1387 1386 1385 1385 1385 1384 1384 1384 1384 1384 1385 1385 1385
1431 1430 1429 1427 1426 1425 1423 1421 1420 1418 1417 1415 1414 1412 1410 1409 1407 1406 1404 1402 1401 1399 1398 1396 1395 1393 1392 1390 1389 1388 1387 1386 1385 1384 1384 1383 1383 1383 1383 1383 1383 1383 1383 1384
1429 1428 1427 1425 1424 1423 1421 1420 1418 1416 1415 1413 1412 1410 1408 1407 1405 1404 1402 1400 1399 1398 1396 1394 1393 1391 1390 1389 1388 1387 1386 1385 1384 1383 1382 1382 1382 1382 1382 1382 1382 1382 1382 1382
1428 1426 1425 1424 1422 1421 1419 1418 1416 1415 1413 1411 1410 1408 1406 1405 1403 1402 1400 1399 1397 1396 1394 1393 1391 1390 1389 1388 1386 1385 1384 1384 1383 1382 1382 1381 1381 1381 1381 1381 1381 1381 1381 1381
1426 1425 1423 1421 1420 1419 1417 1416 1414 1413 1411 1410 1408 1406 1405 1403 1401 1400 1398 1397 1395 1394 1393 1391 1390 1389 1387 1386 1385 1384 1383 1383 1382 1381 1381 1380 1380 1380 1379 1379 1379 1379 1379 1380
1424 1422 1421 1419 1418 1416 1415 1414 1413 1411 1409 1408 1406 1405 1403 1401 1400 1398 1397 1395 1394 1393 1391 1390 1389 1387 1386 1385 1384 1383 1382 1381 1381 1380 1380 1379 1379 1378 1378 1378 1378 1378 1378 1378
1421 1420 1418 1417 1415 1414 1413 1411 1410 1409 1407 1406 1404 1403 1401 1399 1398 1396 1395 1394 1393 1391 1390 1388 1387 1386 1385 1384 1383 1382 1381 1380 1380 1379 1378 1378 1378 1377 1377 1377 1377 1377 1377 1377
1418 1417 1416 1414 1413 1412 1410 1409 1407 1406 1405 1403 1402 1401 1399 1398 1396 1395 1393 1392 1391 1390 1388 1387 1386 1385 1384 1383 1382 1381 1380 1379 1379 1378 1377 1377 1376 1376 1376 1376 1376 1376 1376 1376
1415 1414 1412 1411 1410 1409 1408 1406 1405 1404 1402 1401 1399 1398 1397 1396 1395 1393 1392 1391 1389 1388 1387 1386 1385 1384 1383 1382 1381 1380 1379 1379 1378 1377 1376 1376 1376 1375 1375 1375 1375 1375 1375 1375